Welcome to the New NWS' Forecast!
Most changes are behind the scenes, but click here for differences you might notice.

Regional Weather Roundup (RWR)

Issued by National Weather Service (NWS)

                            
000
ASUS46 KSTO 230715
RWRCA 

NORTHERN AND CENTRAL CA REGIONAL WEATHER ROUNDUP
NATIONAL WEATHER SERVICE SACRAMENTO CA 
1200 AM PDT TUE OCT 23 2018

NOTE: FAIR INDICATES FEW OR NO CLOUDS BELOW 12,000 FEET WITH NO
SIGNIFICANT WEATHER AND/OR OBSTRUCTIONS TO VISIBILITY.

CAZ001-003-230800-
NORTHWEST AREA
  
CITY           SKY/WX    TMP DP  RH WIND       PRES   REMARKS
CRESCENT CITY  CLOUDY    52  48  86 S7        29.96S                  
UKIAH          CLEAR     50  44  80 CALM      29.95S                  
$$

CAZ006-505>513-230800-
BAY AREA
  
CITY           SKY/WX    TMP DP  RH WIND       PRES   REMARKS
SANTA ROSA     MOCLDY    46  45  96 SE5       29.96S                  
SAN RAFAEL     N/A       54  MM  MM MISG
NAPA           CLEAR     50  46  86 CALM      29.97S                  
CONCORD        CLEAR     54  47  77 MISG      29.97S                  
OAKLAND CITY   N/A       56  MM  MM MISG
OAKLAND        PTCLDY    55  50  83 W7        29.98F                  
SAN FRAN CITY  N/A       54  MM  81 MISG
SAN FRAN ARPT  PTCLDY    54  47  77 W3        29.97S                  
LIVERMORE      CLEAR     50  47  89 CALM      29.97S                  
HAYWARD        CLOUDY    55  48  77 NE5       29.97F                  
REDWOOD CITY   N/A       49  MM  89 MISG
MOFFETT ARPT   CLEAR     54  50  86 S3        29.98F                  
SAN JOSE ARPT  PTCLDY    56  50  80 CALM      29.98S                  
$$
CAZ034-037-514>518-230800-
CENTRAL COAST
  
CITY           SKY/WX    TMP DP  RH WIND       PRES   REMARKS
WATSONVILLE    CLEAR     50  49  96 CALM      29.98S                  
SALINAS        PTCLDY    54  50  86 CALM      29.97S                  
MONTEREY       MOCLDY    56  50  80 S5        29.98S                  
SAN LUIS OBISP CLEAR     51  48  89 CALM      29.93F                  
SANTA MARIA    CLOUDY    55  53  93 S3        29.93F FOG              
$$
CAZ015-016-230800-
NORTHERN SACRAMENTO VALLEY
  
CITY           SKY/WX    TMP DP  RH WIND       PRES   REMARKS
REDDING        CLEAR     54  35  48 N3        29.90S                  
RED BLUFF      CLEAR     51  36  56 NW5       29.90S                  
OROVILLE       CLEAR     62  38  40 E6        29.92S                  
$$
CAZ016>018-230800-
SOUTHERN SACRAMENTO VALLEY
  
CITY           SKY/WX    TMP DP  RH WIND       PRES   REMARKS
AUBURN         CLEAR     59  30  33 E5        29.96R                  
BEALE AFB      CLEAR     53  38  57 SE6       29.90S                  
LINCOLN        FAIR      54  45  71 SE5       29.91S                  
MARYSVILLE     CLEAR     56  45  66 E3        29.92S                  
SAC INTL ARPT  CLEAR     55  47  74 SE8       29.91R                  
MATHER AIRPORT NOT AVBL                                               
DOWNTOWN SAC   N/A       56  MM  MM MISG
SAC EXEC ARPT  CLEAR     54  47  77 SE3       29.92S                  
VACAVILLE      CLEAR     57  45  64 SW8       29.92S                  
TRAVIS AFB     CLEAR     53  47  78 SW21      29.90F                  
$$
CAZ019>021-230800-
SAN JOAQUIN VALLEY
  
CITY           SKY/WX    TMP DP  RH WIND       PRES   REMARKS
STOCKTON       CLEAR     54  49  83 N7        29.93R                  
MODESTO        CLEAR     58  50  75 N6        29.92R                  
MERCED         CLEAR     57  48  72 NW9       29.90S                  
LEMOORE        CLEAR     56  39  53 NW6       29.91R                  
FRESNO         CLEAR     63  48  58 NW9       29.91R                  
HANFORD        CLEAR     60  49  66 N3        29.92R                  
PORTERVILLE    CLEAR     58  44  60 CALM      29.93R                  
BAKERSFIELD    PTCLDY    63  38  39 E5        29.91S                  
$$
CAZ011-012-071-230800-
NORTHERN MOUNTAINS
  
CITY           SKY/WX    TMP DP  RH WIND       PRES   REMARKS
YREKA          CLEAR     43  18  36 N5        29.96S                  
MOUNT SHASTA   CLEAR     39  29  67 CALM      30.00S                  
ALTURAS        CLEAR     33  24  69 CALM      30.04S                  
$$
CAZ011-012-071-230800-
SIERRA NEVADA MTNS
  
CITY           SKY/WX    TMP DP  RH WIND       PRES   REMARKS
BLUE CANYON    CLEAR     53  22  29 N5        30.10R                  
TRUCKEE        CLEAR     34  23  64 CALM      30.12S                  
TAHOE VLY ARPT CLEAR     32  25  75 CALM      30.11S                  
MAMMOTH LAKES  FAIR      33  23  68 CALM      30.15S                  
$$